Renfro Valley, KY (40473)

10:44 AM EST on February 11, 2016 (GMT -0500)
Green Fish Hill | | Change Station
CLOSE
Current Station
Personal Weather Station
Location: Mount Vernon, KY
Elevation: 1214 ft
Nearby Weather Stations

Elev 1214 ft 37.42 °N, 84.33 °W | Updated 9 seconds ago

Mostly Cloudy
Mostly Cloudy
24.4 °F
Feels Like 24 °F
N
0.7
Wind Variable Wind from NNW
Gusts 5.4 mph

Today
High -- | Low -- °F
--% Chance of Precip.
Yesterday
High -- | Low -- °F
Precip. -- in
Pressure 30.26 in
Visibility 10.0 miles
Clouds Clear
Windchill 24 °F
Dew Point 17 °F
Humidity 74%
Rainfall 0.00 in
Snow Depth Not available.
7:31 AM 6:12 PM
Waxing Crescent, 12% visible
METAR KI39 111535Z AUTO 00000KT 10SM CLR M05/M11 A3026 RMK AO2
Pressure 30.26 in
Visibility 10.0 miles
Clouds Clear
Windchill 24 °F
Dew Point 17 °F
Humidity 74%
Rainfall 0.00 in
Snow Depth Not available.
7:31 AM 6:12 PM
Waxing Crescent, 12% visible
METAR KI39 111535Z AUTO 00000KT 10SM CLR M05/M11 A3026 RMK AO2

10-Day Weather Forecast

Almanac

Astronomy

Feb. 11, 2016 Rise Set
Actual Time
Civil Twilight
Nautical Twilight
Astronomical Twilight
Moon
Length of Visible Light
Length of Day
Tomorrow will be .
, % of the Moon is Illuminated

Today's Extremes

State Highs State Lows

Community

WunderPhotos

Upload Photos

1,892,081 photos uploaded!

WunderBlog® & News

Nearby

Air Quality

  Air Quality AQ Index Pollutant
Not available.

Snow Depth

Station Depth Elevation

Earthquake Activity

City Distance Mag. Time & Date
Minimum magnitude displayed is 2.5.

Coastal Water Temperatures

Place Temperature

Stations

Nearby Weather Stations

Station Location Temp. Windchill Dew Point Humidity Wind Precip. Elev Updated Type
                   

Watches & Warnings

There are currently no watches in effect.